Current Weather Conditions: station 62154

sailwx.info

Wind from 230 at 11 knots

Wave height 0.7 meters (2 feet), 3 second period

Air temperature 12.3° C
Dewpoint 10.9° C

Last reported at 2019-Jun-18 06:00 UTC.
Time now 2019-Jun-18 07:42 UTC

Location: N 56°24' E 002°12'.
View on Google Maps.

See reports from other nearby stations

  
Tides and Currents Weather Stations Pressure Air Temp Water Temp Dewpoint Dewpoint Depression Visibility Wind Speed Wind Dir Waves Ship Positions
date/time (UTC)wind fromknots sea level pressurealtimeterstation pressurevisibilityair tempwater tempwave heightnotes
2019-Jun-18 06:00 230 11 12.3 0.7
2019-Jun-18 05:00 230 11 12.8 0.8
2019-Jun-18 04:00 230 12 12.4 0.8
2019-Jun-18 03:00 230 13 12.7 0.9
2019-Jun-18 02:00 220 15 12.8 0.9
2019-Jun-18 01:00 220 15 12.6 1.0
2019-Jun-18 00:00 220 14 12.7 1.1
2019-Jun-17 23:00 230 19 13.0 1.2
2019-Jun-17 22:00 210 18 13.0 1.3
2019-Jun-17 21:00 200 19 12.9 1.5
2019-Jun-17 20:00 210 20 13.1 1.6
2019-Jun-17 19:00 210 20 13.0 1.7
2019-Jun-17 18:00 210 19 13.1 1.6
2019-Jun-17 17:00 210 20 13.7 1.6
2019-Jun-17 16:00 210 18 14.5 1.7
2019-Jun-17 15:00 220 21 14.9 1.8
2019-Jun-17 14:00 220 20 14.7 1.8
2019-Jun-17 13:00 210 20 14.2 1.8
2019-Jun-17 12:00 220 20 13.9 1.7
2019-Jun-17 11:00 220 21 13.3 1.7
2019-Jun-17 10:00 210 21 12.8 1.6
2019-Jun-17 09:00 210 22 12.6 1.5
2019-Jun-17 08:00 210 24 12.8 1.5
2019-Jun-17 07:00 210 21 12.8 1.3
2019-Jun-17 06:00 210 20 12.8 1.2
2019-Jun-17 05:00 210 20 12.8 1.0
2019-Jun-17 04:00 200 20 13.0 0.9
2019-Jun-17 03:00 210 20 13.1 0.9
2019-Jun-17 02:00 200 18 13.0 0.9
2019-Jun-17 01:00 200 19 12.7 0.9
2019-Jun-17 00:00 190 18 12.6 1.0
2019-Jun-16 23:00 190 17 12.6 1.0
2019-Jun-16 22:00 180 17 12.7 1.0
2019-Jun-16 21:00 180 19 12.6 1.0
2019-Jun-16 20:00 170 18 12.5 1.0
2019-Jun-16 19:00 180 17 12.5 0.9
2019-Jun-16 18:00 180 17 12.6 1.0
2019-Jun-16 17:00 180 18 12.9 0.9
2019-Jun-16 16:00 200 18 13.7 0.9
2019-Jun-16 15:00 200 15 13.9 0.8
2019-Jun-16 14:00 200 14 14.3 0.7
2019-Jun-16 13:00 200 13 13.7 0.6
2019-Jun-16 12:00 200 12 13.4 0.6
2019-Jun-16 11:00 190 12 12.9 0.7
2019-Jun-16 10:00 220 11 12.4 0.8
2019-Jun-16 09:00 220 9 12.4 0.7
2019-Jun-16 08:00 230 12 12.0 0.7
2019-Jun-16 07:00 230 13 11.8 0.7